Time,TemperatureF,DewpointF,PressureIn,WindDirection,WindDirectionDegrees,WindSpeedMPH,WindSpeedGustMPH,Humidity,HourlyPrecipIn,Conditions,Clouds,dailyrainin,SoftwareType,DateUTC
2013-01-02 00:00:00,6.0,-1.7,29.98,NW,305,0.0,7.0,70,0.00,,,0.00,Wunderground v.1.15,2013-01-02 05:00:00,
2013-01-02 00:10:00,5.8,-1.6,29.98,NW,305,0.0,7.0,71,0.00,,,0.00,Wunderground v.1.15,2013-01-02 05:10:00,
2013-01-02 00:20:00,6.0,-1.4,29.99,NW,305,0.0,7.0,71,0.00,,,0.00,Wunderground v.1.15,2013-01-02 05:20:00,
2013-01-02 00:30:00,6.7,-1.0,29.99,NW,305,0.0,7.0,70,0.00,,,0.00,Wunderground v.1.15,2013-01-02 05:30:00,
2013-01-02 00:40:00,6.7,-1.0,29.99,NW,305,0.0,7.0,70,0.00,,,0.00,Wunderground v.1.15,2013-01-02 05:40:00,
2013-01-02 00:50:00,6.3,-1.4,29.98,NW,305,0.0,7.0,70,0.00,,,0.00,Wunderground v.1.15,2013-01-02 05:50:00,
2013-01-02 01:00:00,6.0,-0.8,29.98,NW,305,0.0,7.0,73,0.00,,,0.00,Wunderground v.1.15,2013-01-02 06:00:00,
2013-01-02 01:10:00,6.3,-0.8,29.98,NW,305,0.0,7.0,72,0.00,,,0.00,Wunderground v.1.15,2013-01-02 06:10:00,
2013-01-02 01:20:00,6.3,-0.8,29.98,NW,305,0.0,7.0,72,0.00,,,0.00,Wunderground v.1.15,2013-01-02 06:20:00,
2013-01-02 01:30:00,6.0,-1.1,29.99,NW,305,0.0,7.0,72,0.00,,,0.00,Wunderground v.1.15,2013-01-02 06:30:00,
2013-01-02 01:40:00,7.0,0.5,29.99,NNE,12,1.0,7.0,74,0.00,,,0.00,Wunderground v.1.15,2013-01-02 06:40:00,
2013-01-02 01:50:00,7.4,-0.3,29.98,NNE,12,0.0,7.0,70,0.00,,,0.00,Wunderground v.1.15,2013-01-02 06:50:00,
2013-01-02 02:00:00,8.8,0.7,29.98,NNE,12,0.0,7.0,69,0.00,,,0.00,Wunderground v.1.15,2013-01-02 07:00:00,
2013-01-02 02:10:00,7.2,-1.2,29.98,NNE,12,0.0,7.0,68,0.00,,,0.00,Wunderground v.1.15,2013-01-02 07:10:00,
2013-01-02 02:20:00,5.8,-2.2,29.99,NNE,12,0.0,7.0,69,0.00,,,0.00,Wunderground v.1.15,2013-01-02 07:20:00,
2013-01-02 02:30:00,4.3,-2.4,29.99,NNE,12,0.0,7.0,73,0.00,,,0.00,Wunderground v.1.15,2013-01-02 07:30:00,
2013-01-02 02:40:00,4.5,-1.1,29.99,NNE,12,0.0,7.0,77,0.00,,,0.00,Wunderground v.1.15,2013-01-02 07:40:00,
2013-01-02 02:50:00,4.5,-1.4,29.99,NNE,12,0.0,7.0,76,0.00,,,0.00,Wunderground v.1.15,2013-01-02 07:50:00,
2013-01-02 03:00:00,4.8,-0.8,29.98,NNE,12,0.0,7.0,77,0.00,,,0.00,Wunderground v.1.15,2013-01-02 08:00:00,
2013-01-02 03:10:00,5.0,-0.6,29.98,NNE,12,0.0,7.0,77,0.00,,,0.00,Wunderground v.1.15,2013-01-02 08:10:00,
2013-01-02 03:20:00,4.8,-0.8,29.99,NNE,12,0.0,7.0,77,0.00,,,0.00,Wunderground v.1.15,2013-01-02 08:20:00,
2013-01-02 03:30:00,5.8,1.0,29.98,NNE,12,0.0,7.0,80,0.00,,,0.00,Wunderground v.1.15,2013-01-02 08:30:00,
2013-01-02 03:40:00,8.6,3.4,29.98,ENE,68,2.0,7.0,79,0.00,,,0.00,Wunderground v.1.15,2013-01-02 08:40:00,
2013-01-02 03:50:00,9.3,3.0,29.98,ESE,114,2.0,7.0,75,0.00,,,0.00,Wunderground v.1.15,2013-01-02 08:50:00,
2013-01-02 04:00:00,9.3,3.0,29.97,East,98,1.0,1.0,75,0.00,,,0.00,Wunderground v.1.15,2013-01-02 09:00:00,
2013-01-02 04:10:00,9.7,3.4,29.97,East,97,1.0,7.0,75,0.00,,,0.00,Wunderground v.1.15,2013-01-02 09:10:00,
2013-01-02 04:20:00,6.5,-0.9,29.97,SE,139,0.0,7.0,71,0.00,,,0.00,Wunderground v.1.15,2013-01-02 09:20:00,
2013-01-02 04:30:00,7.2,2.1,29.97,ESE,121,1.0,7.0,79,0.00,,,0.00,Wunderground v.1.15,2013-01-02 09:30:00,
2013-01-02 04:40:00,9.5,3.7,29.97,ESE,116,3.0,7.0,77,0.00,,,0.00,Wunderground v.1.15,2013-01-02 09:40:00,
2013-01-02 04:50:00,10.2,3.8,29.95,ESE,121,3.0,3.0,75,0.00,,,0.00,Wunderground v.1.15,2013-01-02 09:50:00,
2013-01-02 05:00:00,10.4,3.8,29.96,ESE,111,3.0,7.0,74,0.00,,,0.00,Wunderground v.1.15,2013-01-02 10:00:00,
2013-01-02 05:10:00,10.4,4.0,29.96,SE,135,3.0,7.0,75,0.00,,,0.00,Wunderground v.1.15,2013-01-02 10:10:00,
2013-01-02 05:20:00,10.5,3.8,29.95,SE,137,3.0,3.0,74,0.00,,,0.00,Wunderground v.1.15,2013-01-02 10:20:00,
2013-01-02 05:30:00,10.0,3.4,29.96,SE,141,1.0,1.0,74,0.00,,,0.00,Wunderground v.1.15,2013-01-02 10:30:00,
2013-01-02 05:40:00,9.9,3.8,29.96,SSE,159,1.0,7.0,76,0.00,,,0.00,Wunderground v.1.15,2013-01-02 10:40:00,
2013-01-02 05:50:00,10.5,4.1,29.96,SE,145,4.0,4.0,75,0.00,,,0.00,Wunderground v.1.15,2013-01-02 10:50:00,
2013-01-02 06:00:00,10.7,4.3,29.95,ESE,114,3.0,3.0,75,0.00,,,0.00,Wunderground v.1.15,2013-01-02 11:00:00,
2013-01-02 06:10:00,10.7,4.0,29.95,East,89,3.0,3.0,74,0.00,,,0.00,Wunderground v.1.15,2013-01-02 11:10:00,
2013-01-02 06:20:00,10.9,4.2,29.96,SE,131,4.0,7.0,74,0.00,,,0.00,Wunderground v.1.15,2013-01-02 11:20:00,
2013-01-02 06:30:00,11.1,4.4,29.95,SE,131,4.0,4.0,74,0.00,,,0.00,Wunderground v.1.15,2013-01-02 11:30:00,
2013-01-02 06:40:00,11.4,4.7,29.95,SSE,155,4.0,4.0,74,0.00,,,0.00,Wunderground v.1.15,2013-01-02 11:40:00,
2013-01-02 06:50:00,11.6,4.9,29.96,ESE,121,3.0,7.0,74,0.00,,,0.00,Wunderground v.1.15,2013-01-02 11:50:00,